Regional Weather Roundup
Issued by NWS

Home | Current Version | Previous Version | Graphics & Text | Print | Product List | Glossary On
Versions: 1 2 3 4 5 6 7 8 9 10 11 12 13 14 15 16 17 18 19 20 21 22 23 24 25 26 27 28 29 30 31 32 33 34 35 36 37 38 39 40 41 42 43 44 45 46 47 48 49 50
340
ASUS45 KSLC 081910
RWRUT

UTAH REGIONAL WEATHER ROUNDUP
NATIONAL WEATHER SERVICE SALT LAKE CITY UT
1200 PM MST MON FEB 08 2016

UTZ001>011-023>025-082000-

NORTHERN UTAH

CITY           SKY/WX    TMP DP  RH WIND       PRES   REMARKS
DUGWAY         MOSUNNY   36  29  74 W3        30.72
HILL AFB       SUNNY     35  17  47 E3        30.69F
LOGAN          FOG       18  18 100 CALM      30.72F VSB 1
OGDEN          SUNNY     35  24  64 CALM      30.70F
PROVO AIRPORT  MOSUNNY   21  19  93 CALM      30.72F HAZE
SALT LAKE CITY PTSUNNY   38  24  57 CALM      30.70F
VERNAL         CLOUDY    23  12  62 CALM      30.64F
WENDOVER       SUNNY     36  27  69 E3        30.72F
HEBER CITY     SUNNY     28  18  64 CALM      30.67F
WEST JORDAN    SUNNY     36  25  64 S5        30.70F WCI  32

$$

UTZ012>022-026-027-082000-

SOUTHERN/CENTRAL UTAH

CITY           SKY/WX    TMP DP  RH WIND       PRES   REMARKS
BLANDING       SUNNY     48  17  29 CALM      30.58F
BRYCE CANYON   SUNNY     32  19  58 NE8       30.60F WCI  25
CEDAR CITY     SUNNY     33  17  51 CALM      30.61F
DELTA          MOSUNNY   20  19  96 SW3       30.70F
HANKSVILLE     SUNNY     32  21  64 CALM      30.65F
MILFORD        SUNNY     22  17  81 N12       30.66F WCI  10
MOAB/CYNLANDS  MOSUNNY   25  20  81 NW9       30.61F WCI  15
PRICE          SUNNY     34  19  54 CALM      30.56F
ST GEORGE      CLEAR     52  25  35 CALM      30.53F
KANAB          SUNNY     57  27  30 E8        30.53F

$$

REGIONAL REPORTS     COLORADO/ARIZONA

CITY           SKY/WX    TMP DP  RH WIND       PRES   REMARKS
CRAIG, CO      CLOUDY    16  10  77 S3        30.60F
GRAND JUNCTION SUNNY     34  22  61 CALM      30.61F
RIFLE          SUNNY     30  17  58 SE6       30.59F WCI  24
MONTROSE       SUNNY     36  18  48 N3        30.60F
CORTEZ         SUNNY     43  21  41 E3        30.48F
PAGE, AZ       SUNNY     43  27  53 VRB3      30.56F
GRAND CANYON   SUNNY     51  17  26 E18       30.53S
KINGMAN        SUNNY     60  21  22 N14       30.40F
FLAGSTAFF      SUNNY     48  17  29 E7G22     30.50F

$$

REGIONAL REPORTS    NEVADA/IDAHO/WYOMING

CITY           SKY/WX    TMP DP  RH WIND       PRES   REMARKS
LAS VEGAS, NV  SUNNY     63  23  21 CALM      30.41F
ELY            SUNNY     26  20  77 S6        30.67S WCI  19
ELKO           SUNNY     25  15  66 E5        30.71F WCI  19
POCATELLO, ID  CLOUDY    27  25  92 N6        30.73F WCI  20
BURLEY         CLOUDY    29  28  96 NE12      30.69F FOG     WCI  19
EVANSTON, WY   CLOUDY    21  13  71 CALM      30.64F
ROCK SPRINGS   CLOUDY    33  22  63 W22       30.54F WCI  21
KEMMERER       CLOUDY    36  25  64 W12       30.59F WCI  27

$$




USA.gov is the U.S. government's official web portal to all federal, state and local government web resources and services.